Huldenberg, Belgium
Current Conditions -  °F | °C
As of 9:20 AM on Monday 22 Dec 2014 (Local Time) from EBBR Reporting Station
Broken Clouds Broken Clouds  
Wind Chill: 41°   Ceiling: 1200
Heat Index: 48°   Visibility: 6mi
Dew Point: 43°   Wind: 22mph
Humidity: 82%   Direction: 230°SW
Pressure: 30.15"   Gusts: 33mph
Location:  50.79°N, 4.58°E
Report Text: EBBR 220820Z 23019G29KT 9999 SCT010 BKN012 09/06 Q1021 TEMPO BKN009
Loading
Personal Weather Stations






























Interactive Weather Map New forecast layout! Learn more

10-Day Weather Forecast

Advertisements
Track Severe Weather on mobile